Location: Chamerau
(49.1969°N, 12.7525°E)
Time: 05:20:41
(UTC+00:00)

NOSS 2-2 (E) - Pass Details

Date: 18 September 2020
Orbit: 468 x 1739 km, 63.3° (Epoch: 26 October)

Event Time Altitude Azimuth Distance (km) Brightness Sun altitude
Rises 19:12:46 0° 233° (SW) 2,498 7.0 -19.4°
Reaches altitude 10° 19:14:48 10° 238° (WSW) 1,644 6.1 -19.7°
Maximum altitude 19:18:17 55° 318° (NW) 625 3.9 -20.2°
Drops below altitude 10° 19:22:24 10° 37° (NE) 1,934 6.0 -20.8°
Sets 19:24:58 0° 42° (NE) 3,001 7.0 -21.1°
